Station HIST2 - 8770808 - High Island, TX Image indicating link to RSS feed of recent meteorological observations for station HIST2


Conditions at HIST2 as of
(12:48 pm CDT)
1748 GMT on 04/14/2024:
     

Click on the graph icon in the table below to see a time series plot of the last five days of that observation.

5-day plot - Wind Direction Wind Direction (WDIR): S ( 170 deg true )
5-day plot - Wind Speed Wind Speed (WSPD): 8.0 kts
5-day plot - Wind Gust Wind Gust (GST): 12.0 kts
5-day plot - Atmospheric Pressure Atmospheric Pressure (PRES):30.11 in
5-day plot - Air Temperature Air Temperature (ATMP): 76.6 °F
5-day plot - Water Temperature Water Temperature (WTMP): 79.9 °F
5-day plot - Wind Speed at 10 Meters Wind Speed at 10 meters (WSPD10M): 7.8 kts
5-day plot - Wind Speed at 20 Meters Wind Speed at 20 meters (WSPD20M): 9.7 kts
5-day plot -  Wind Speed, Wind Gust and Atmospheric Pressure Combined plot of Wind Speed, Gust, and Air Pressure
Previous observations
TIME
(CDT)
5-day plot - Wind Direction
WDIR
 
5-day plot - Wind Speed
WSPD
kts
5-day plot - Wind Gust
GST
kts
5-day plot - Wave Height
WVHT
ft
5-day plot - Dominant Wave Period
DPD
sec
5-day plot - Average Wave Period
APD
sec
5-day plot - Mean Wave Direction
MWD
 
5-day plot - Atmospheric Pressure
PRES
in
5-day plot - Pressure Tendency
PTDY
in
5-day plot - Air Temperature
ATMP
°F
5-day plot - Water Temperature
WTMP
°F
5-day plot - Dew Point
DEWP
°F
5-day plot - Salinity
SAL
psu
5-day plot - Visibility
VIS
nmi
5-day plot - Tide (above MLLW)
TIDE
ft
2024-04-14 12:42 pm S 8.9 14.0----30.12- 76.3 79.5----
2024-04-14 12:36 pm S 7.0 11.1----30.12- 75.9 79.5----
2024-04-14 12:30 pm S 8.9 11.1----30.12- 75.6 79.7----
2024-04-14 12:24 pm S 6.0 13.0----30.12- 76.1 79.7----
2024-04-14 12:18 pmSSE 6.0 9.9----30.13- 76.1 79.7----
2024-04-14 12:12 pmSSE 6.0 9.9----30.13- 76.1 79.7----
2024-04-14 12:06 pmSSE 6.0 12.0----30.13- 76.1 79.5----
2024-04-14 12:00 pm S 7.0 11.1----30.13+0.02 76.1 79.5----
2024-04-14 11:54 am S 7.0 11.1----30.13- 75.2 79.3----
2024-04-14 11:48 amSSW 8.0 12.0----30.13-- 79.5----
2024-04-14 11:42 am S 6.0 15.0----30.12-- 79.5----
2024-04-14 11:36 am S 7.0 9.9----30.12-- 79.5----
2024-04-14 11:30 am S 6.0 12.0----30.13-- 79.3----
2024-04-14 11:24 am S 6.0 9.9----30.13-- 79.3----
2024-04-14 11:18 am S 7.0 9.9----30.13- 75.2 79.3----
2024-04-14 11:12 am S 6.0 9.9----30.13- 74.8 79.2----
2024-04-14 11:06 am S 6.0 12.0----30.13- 74.7 79.2----
2024-04-14 11:00 am S 8.9 13.0----30.13+0.03 75.0 79.2----
2024-04-14 10:54 am S 8.9 13.0----30.12- 74.7 79.2----
2024-04-14 10:48 am S 7.0 11.1----30.12- 74.8 79.2----
2024-04-14 10:42 am S 7.0 13.0----30.11- 74.7 79.2----
2024-04-14 10:36 am S 8.0 15.0----30.11- 74.3 79.2----
2024-04-14 10:30 am S 8.0 13.0----30.11-- 79.2----
2024-04-14 10:24 am S 6.0 13.0----30.12-- 79.2----
2024-04-14 10:18 am S 8.9 12.0----30.12-- 79.2----
2024-04-14 10:12 am S 8.0 11.1----30.12-- 79.2----
2024-04-14 10:06 am S 8.0 15.0----30.12-- 79.2----
2024-04-14 10:00 am S 6.0 15.0----30.12+0.04 73.9 79.2----
2024-04-14 09:54 am S 8.0 11.1----30.12- 73.8 79.2----
2024-04-14 09:48 am S 8.9 12.0----30.12- 73.2 79.0----
2024-04-14 09:42 am S 9.9 13.0----30.12- 73.4 79.0----
2024-04-14 09:36 am S 5.1 12.0----30.11- 73.6 79.0----
2024-04-14 09:30 am S 7.0 12.0----30.11- 73.2 78.8----
2024-04-14 09:24 am S 5.1 9.9----30.11- 73.2 78.8----
2024-04-14 09:18 am S 7.0 12.0----30.11- 72.7 78.8----
2024-04-14 09:12 am S 7.0 12.0----30.10- 72.5 78.8----
2024-04-14 09:06 am S 7.0 11.1----30.10- 72.3 78.8----
2024-04-14 09:00 am S 8.0 11.1----30.10+0.02- 78.8----
2024-04-14 08:54 am S 7.0 9.9----30.11-- 78.8----
2024-04-14 08:48 am S 6.0 9.9----30.11- 72.3 78.6----
2024-04-14 08:42 am S 6.0 9.9----30.11- 72.0 78.6----
2024-04-14 08:36 am S 5.1 8.9----30.11- 71.8 78.6----
2024-04-14 08:30 am S 5.1 8.9----30.10-- 78.6----
2024-04-14 08:24 amSSE 6.0 8.9----30.10-- 78.6----
2024-04-14 08:18 am S 6.0 8.0----30.10- 71.8 78.6----
2024-04-14 08:12 am S 6.0 8.0----30.10- 71.6 78.6----
2024-04-14 08:06 amSSE 5.1 7.0----30.10- 71.2 78.6----
2024-04-14 08:00 am S 5.1 8.0----30.09- 70.9 78.4----
2024-04-14 07:54 amSSE 5.1 7.0----30.09- 70.7 78.4----
2024-04-14 07:48 am-------30.09- 70.2 78.4----
2024-04-14 07:42 am-------30.09- 69.8 78.4----
2024-04-14 07:36 am-------30.09- 69.4 78.4----
2024-04-14 07:30 am S 4.1 6.0----30.09-- 78.4----
2024-04-14 07:24 am S 5.1 6.0----30.09-- 78.4----
2024-04-14 07:18 am S 5.1 7.0----30.09- 69.3 78.4----
2024-04-14 07:12 am S 5.1 6.0----30.09- 69.1 78.4----
2024-04-14 07:06 am S 4.1 7.0----30.09- 69.1 78.4----
2024-04-14 07:00 am S 5.1 6.0----30.09+0.00- 78.4----
2024-04-14 06:54 am S 5.1 7.0----30.08-- 78.6----
2024-04-14 06:48 am S 5.1 7.0----30.08-- 78.6----
2024-04-14 06:42 am S 6.0 8.0----30.07-- 78.6----
2024-04-14 06:36 amSSE 6.0 8.9----30.07-- 78.6----
2024-04-14 06:30 amSSE 5.1 7.0----30.07- 69.1 78.6----
2024-04-14 06:24 amSSE 5.1 6.0----30.08- 69.1 78.6----
2024-04-14 06:18 am S 5.1 6.0----30.08-------
2024-04-14 06:12 am S 6.0 7.0----30.08-------
2024-04-14 06:06 amSSE 5.1 7.0----30.08-------
2024-04-14 06:00 amSSE 5.1 6.0----30.08-0.02 69.3 78.6----
2024-04-14 05:54 amSSE 5.1 6.0----30.08- 69.1 78.6----
2024-04-14 05:48 am S 4.1 6.0----30.08-- 78.6----
2024-04-14 05:42 am S 5.1 6.0----30.08-- 78.6----
2024-04-14 05:36 am S 4.1 6.0----30.08-- 78.6----
2024-04-14 05:30 amSSE 5.1 6.0----30.08- 68.9 78.6----
2024-04-14 05:24 am S 5.1 5.1----30.08- 68.7 78.6----
2024-04-14 05:18 am S 5.1 7.0----30.08- 68.9 78.6----
2024-04-14 05:12 am S 4.1 6.0----30.08- 68.7 78.6----
2024-04-14 05:06 am S 5.1 7.0----30.07- 68.9 78.6----
2024-04-14 05:00 amSSE 5.1 7.0------ 68.9-----
2024-04-14 04:54 amSSE 5.1 6.0------ 68.7-----
2024-04-14 04:48 amSSE 5.1 6.0------ 68.7 78.8----
2024-04-14 04:42 amSSE 5.1 6.0------ 68.7 78.8----
2024-04-14 04:36 amSSE 5.1 6.0------ 68.7 78.8----
2024-04-14 04:30 amSSE 4.1 5.1----30.09-- 78.8----
2024-04-14 04:24 amSSE 4.1 5.1----30.09-- 78.8----
2024-04-14 04:18 amSSE 4.1 5.1----30.09- 68.9 78.8----
2024-04-14 04:12 amSSE 4.1 5.1----30.09- 68.9 78.8----
2024-04-14 04:06 am S 4.1 5.1----30.09- 69.1 78.8----
2024-04-14 04:00 am S 4.1 5.1----30.09-0.04 69.1 78.8----
2024-04-14 03:54 am S 5.1 6.0----30.09- 69.1 78.8----
2024-04-14 03:48 am S 4.1 5.1----30.09- 69.3 78.8----
2024-04-14 03:42 am S 5.1 7.0----30.09- 69.3 78.8----
2024-04-14 03:36 am S 5.1 7.0----30.09- 69.3 78.8----
2024-04-14 03:30 am S 5.1 8.0----30.09- 69.4 78.8----
2024-04-14 03:24 am S 5.1 7.0----30.09- 69.4 78.8----
2024-04-14 03:18 am S 5.1 7.0----30.10- 69.6 78.8----
2024-04-14 03:12 am S 5.1 7.0----30.10- 69.6 78.8----
2024-04-14 03:06 am S 5.1 7.0----30.10- 69.6 78.8----
2024-04-14 03:00 am S 5.1 7.0----30.10-0.03 69.6 78.8----
2024-04-14 02:54 am S 5.1 7.0----30.11- 69.6 79.0----
2024-04-14 02:48 am S 5.1 8.0----30.11- 69.6 79.0----
2024-04-14 02:42 am S 6.0 8.0----30.11- 69.6 79.0----
2024-04-14 02:36 am S 5.1 8.0----30.11- 69.4 79.0----
2024-04-14 02:30 am S 6.0 8.9----30.11- 69.4 79.0----
2024-04-14 02:24 am S 6.0 8.0----30.11- 69.4 79.0----
2024-04-14 02:18 am S 5.1 7.0----30.11- 69.3 79.0----
2024-04-14 02:12 am S 6.0 7.0----30.11- 69.4 79.0----
2024-04-14 02:06 am S 5.1 7.0----30.12- 69.4 79.0----
2024-04-14 02:00 am S 6.0 8.9----30.12-0.02 69.4 79.0----
2024-04-14 01:54 am S 5.1 8.0----30.12- 69.4 79.2----
2024-04-14 01:48 am S 6.0 8.9----30.12- 69.4 79.2----
2024-04-14 01:42 am S 6.0 11.1----30.12- 69.4 79.2----
2024-04-14 01:36 am S 5.1 8.9----30.12- 69.4 79.2----
2024-04-14 01:30 am S 7.0 8.9----30.12- 69.4 79.2----
2024-04-14 01:24 am S 7.0 8.0----30.12- 69.6 79.2----
2024-04-14 01:18 am S 7.0 8.9----30.12- 69.6 79.2----
2024-04-14 01:12 amSSE 7.0 8.9----30.12- 69.6 79.2----
2024-04-14 01:06 amSSE 7.0 8.9----30.12- 69.8 79.2----
2024-04-14 01:00 am S 6.0 8.9----30.13-0.01 69.8 79.2----
2024-04-14 12:54 amSSE 6.0 8.9----30.13- 69.8 79.2----
2024-04-14 12:48 amSSE 7.0 9.9----30.13- 69.8 79.2----
2024-04-14 12:42 amSSE 8.0 11.1----30.13- 69.8 79.2----
2024-04-14 12:36 amSSE 8.0 12.0----30.13- 69.8 79.2----
2024-04-14 12:30 amSSE 7.0 9.9----30.13- 69.8 79.2----
2024-04-14 12:24 amSSE 8.0 11.1----30.13- 69.8 79.2----
2024-04-14 12:18 amSSE 8.0 12.0----30.13- 69.8 79.2----
2024-04-14 12:12 amSSE 8.0 11.1----30.13- 69.8 79.2----
2024-04-14 12:06 amSSE 8.0 12.0----30.13- 69.8 79.2----
2024-04-14 12:00 amSSE 8.9 11.1----30.13+0.00 69.8 79.2----
2024-04-13 11:54 pmSSE 7.0 9.9----30.14- 69.8 79.2----
2024-04-13 11:48 pmSSE 8.0 11.1----30.14- 69.6 79.2----
2024-04-13 11:42 pmSSE 8.0 9.9----30.14- 69.6 79.2----
2024-04-13 11:36 pmSSE 7.0 9.9----30.14- 69.8 79.3----
2024-04-13 11:30 pmSSE 7.0 9.9----30.14- 70.0 79.3----
2024-04-13 11:24 pmSSE 8.0 11.1----30.14- 69.8 79.3----
2024-04-13 11:18 pmSSE 7.0 9.9----30.14- 69.8 79.3----
2024-04-13 11:12 pmSSE 7.0 8.9----30.14- 69.8 79.3----
2024-04-13 11:06 pmSSE 8.0 11.1----30.14- 69.8 79.5----
2024-04-13 11:00 pmSSE 8.0 11.1----30.14-0.01 70.0 79.5----
2024-04-13 10:54 pmSSE 8.0 11.1----30.14- 70.0 79.5----
2024-04-13 10:48 pmSSE 8.0 11.1----30.15- 69.8 79.5----
2024-04-13 10:42 pmSSE 7.0 9.9----30.15- 70.0 79.5----
2024-04-13 10:36 pmSSE 6.0 9.9----30.15- 70.0 79.5----
2024-04-13 10:30 pmSSE 7.0 11.1----30.14- 69.8 79.5----
2024-04-13 10:24 pmSSE 8.0 12.0----30.14- 69.6 79.5----
2024-04-13 10:18 pmSSE 8.0 11.1----30.15- 69.6 79.5----
2024-04-13 10:12 pmSSE 8.0 11.1----30.14- 69.6 79.5----
2024-04-13 10:06 pmSSE 7.0 9.9----30.14- 70.0 79.5----
2024-04-13 10:00 pmSSE 7.0 11.1----30.14-0.01 70.0 79.7----
2024-04-13 09:54 pmSSE 6.0 11.1----30.14- 70.0 79.7----
2024-04-13 09:48 pmSSE 7.0 12.0----30.14- 70.0 79.7----
2024-04-13 09:42 pmSSE 6.0 9.9----30.14- 70.2 79.7----
2024-04-13 09:36 pmSSE 6.0 9.9----30.14- 70.2 79.7----
2024-04-13 09:30 pmSSE 6.0 9.9----30.14- 70.2 79.7----
2024-04-13 09:24 pmSSE 7.0 9.9----30.14- 70.2 79.7----
2024-04-13 09:18 pmSSE 6.0 9.9----30.14- 70.2 79.7----
2024-04-13 09:12 pmSSE 7.0 9.9----30.13- 70.0 79.7----
2024-04-13 09:06 pmSSE 6.0 11.1----30.14- 70.2 79.7----
2024-04-13 09:00 pmSSE 6.0 9.9----30.13-0.04 70.0 79.7----
2024-04-13 08:54 pmSSE 6.0 11.1----30.14- 70.0 79.7----
2024-04-13 08:48 pmSSE 6.0 8.9----30.14- 70.0 79.7----
2024-04-13 08:42 pmSSE 6.0 8.9----30.14- 70.0 79.7----
2024-04-13 08:36 pmSSE 6.0 12.0----30.13- 70.0 79.7----
2024-04-13 08:30 pmSSE 7.0 11.1----30.13- 70.0 79.7----
2024-04-13 08:24 pmSSE 5.1 8.9----30.14- 70.2 79.7----
2024-04-13 08:18 pm SE 5.1 8.0----30.14- 70.2 79.7----
2024-04-13 08:12 pm SE 5.1 8.9----30.14- 70.2 79.7----
2024-04-13 08:06 pmSSE 5.1 8.9----30.15- 70.2 79.7----
2024-04-13 08:00 pmSSE 6.0 8.9----30.15-0.04 70.2 79.7----
2024-04-13 07:54 pmSSE 5.1 8.0----30.16- 70.2 79.7----
2024-04-13 07:48 pm SE 5.1 8.0----30.16- 70.3 79.7----
2024-04-13 07:42 pm SE 4.1 8.9----30.16- 70.5 79.7----
2024-04-13 07:36 pmSSE 5.1 8.0----30.16- 70.7 79.7----
2024-04-13 07:30 pmSSE 5.1 8.0----30.16- 70.9 79.9----
2024-04-13 07:24 pmSSE 5.1 8.0----30.16- 71.1 79.9----
2024-04-13 07:18 pm-------30.16- 71.2 79.9----
2024-04-13 07:12 pm-------30.16- 71.2 79.9----
2024-04-13 07:06 pm-------30.16- 71.2 79.9----
2024-04-13 07:00 pm-------30.16-0.05 71.4 79.9----
2024-04-13 06:54 pm-------30.16- 71.8 79.9----
2024-04-13 06:48 pmSSE 6.0 9.9----30.16- 72.1 79.9----
2024-04-13 06:42 pmSSE 4.1 8.0----30.16- 72.5 79.9----
2024-04-13 06:36 pmSSE 6.0 8.9----30.17- 72.1 79.9----
2024-04-13 06:30 pmSSE 6.0 8.0----30.17- 72.5 79.9----
2024-04-13 06:24 pmSSE 6.0 9.9----30.18- 72.9 79.9----
2024-04-13 06:00 pmSSE 7.0 9.9----30.17-0.06 73.6 79.9----
2024-04-13 05:54 pmSSE 6.0 8.9----30.17- 73.6 79.9----
2024-04-13 05:48 pm SE 6.0 8.9----30.18- 73.6-----
2024-04-13 05:42 pmSSE 6.0 11.1----30.19- 73.4-----
2024-04-13 05:36 pmSSE 7.0 9.9----30.19- 73.6-----
2024-04-13 05:30 pm SE 5.1 9.9----30.19- 73.6 79.9----
2024-04-13 05:24 pmSSE 8.0 12.0----30.19- 73.4 79.7----
2024-04-13 05:18 pmSSE 8.0 12.0----30.19- 73.8 79.7----
2024-04-13 05:12 pm SE 6.0 12.0----30.19- 73.9 79.9----
2024-04-13 05:06 pm SE 6.0 12.0----30.19- 73.8 79.7----
2024-04-13 05:00 pmSSE 6.0 8.9----30.19-0.07 74.3 79.7----
2024-04-13 04:54 pmSSE 7.0 11.1----30.19- 74.1 79.7----
2024-04-13 04:48 pm SE 6.0 11.1----30.19- 74.1 79.7----
2024-04-13 04:42 pm SE 5.1 9.9----30.19- 74.1 79.7----
2024-04-13 04:36 pm SE 6.0 9.9----30.20- 74.5 79.7----
2024-04-13 04:30 pm SE 5.1 8.0----30.20- 74.7 79.7----
2024-04-13 04:24 pm SE 4.1 9.9----30.21- 74.7 79.7----
2024-04-13 04:18 pmSSE 6.0 8.9----30.21- 74.5 79.7----
2024-04-13 04:12 pm SE 4.1 9.9----30.21- 74.7 79.7----
2024-04-13 04:06 pm SE 5.1 8.9----30.21- 75.0 79.7----
2024-04-13 04:00 pmSSE 5.1 9.9----30.21-0.06 75.2 79.5----
2024-04-13 03:54 pmSSE 6.0 8.9----30.21- 75.6 79.7----
2024-04-13 03:48 pm--------- 75.4 79.3----
2024-04-13 03:42 pm--------- 75.4 79.5----
2024-04-13 03:36 pm--------- 75.2 79.3----
2024-04-13 03:30 pm SE 5.1 8.9----30.23-- 79.2----
2024-04-13 03:24 pmSSE 5.1 9.9----30.23-- 79.2----
2024-04-13 03:18 pm SE 5.1 9.9----30.23- 75.4 79.0----
2024-04-13 03:12 pm S 6.0 9.9----30.23- 75.0 79.0----
2024-04-13 03:06 pmSSE 7.0 9.9----30.23- 75.0 79.0----
2024-04-13 03:00 pmSSE 6.0 8.9----30.23-0.05 75.4 79.0----
2024-04-13 02:54 pmSSE 6.0 11.1----30.24- 75.0 79.0----
2024-04-13 02:48 pmSSE 5.1 8.9----30.24- 75.2 79.0----
2024-04-13 02:42 pmSSE 6.0 9.9----30.24- 75.0 79.0----
2024-04-13 02:36 pm SE 5.1 8.0----30.24- 74.8 78.8----
2024-04-13 02:30 pmSSE 4.1 9.9----30.25- 75.0 78.8----
2024-04-13 02:24 pm SE 5.1 8.0----30.25- 74.7 79.0----
2024-04-13 02:18 pmSSE 4.1 9.9----30.26- 75.6 79.0----
2024-04-13 02:12 pmSSE 5.1 9.9----30.25- 75.4 79.0----
2024-04-13 02:06 pm SE 5.1 8.0----30.25- 75.2 79.0----
2024-04-13 02:00 pmSSE 5.1 8.9----30.25-0.04 75.0 79.0----
2024-04-13 01:54 pmSSE 5.1 9.9----30.26- 74.7 79.0----
2024-04-13 01:48 pmSSE 6.0 9.9----30.26-- 79.0----
2024-04-13 01:42 pmSSE 6.0 8.9----30.26-- 79.0----
2024-04-13 01:36 pmSSE 8.0 11.1----30.26-- 79.0----
2024-04-13 01:30 pm SE 5.1 11.1----30.26- 74.7 78.8----
2024-04-13 01:24 pm SE 6.0 9.9----30.26- 74.7 78.8----
2024-04-13 01:18 pm-------30.27-- 78.8----
2024-04-13 01:12 pm-------30.27-- 78.6----
2024-04-13 01:06 pm-------30.27-- 78.4----
2024-04-13 01:00 pmSSE 5.1 8.0----30.27+0.00 74.5 78.4----
2024-04-13 12:54 pmSSE 5.1 8.9----30.28- 74.7 78.4----